Weather History for Glendive, MT

Change the Weather History Date:

Monday, November 5, 2012

  Actual Average Record
Temperature  
Mean Temperature 50 °F -  
Max Temperature 66 °F 42 °F 68 °F (2001)
Min Temperature 33 °F 22 °F -5 °F (2003)
Degree Days  
Heating Degree Days 16    
Moisture  
Dew Point 34 °F    
Average Humidity 75    
Maximum Humidity 100    
Minimum Humidity 40    
Precipitation  
Precipitation 0.00 in - - ()
Sea Level Pressure  
Sea Level Pressure 30.01 in    
Wind  
Wind Speed 11 mph (WSW)    
Max Wind Speed 32 mph    
Max Gust Speed 45 mph    
Visibility 7 miles    
Events      
Averages and records for this station are not official NWS values.
T = Trace of Precipitation, MM = Missing Value Source: NWS Daily Summary

Daily Weather History Graph

Daily Weather History Graph

Search for Another Location

Airport:

Trip Planner

Search our weather history database for the weather conditions in past years. The results will help you decide how hot, cold, wet, or windy it might be!

Date:

Astronomy

Nov. 05, 2012 Rise Set
Actual Time 6:49 AM MST 4:36 PM MST
Civil Twilight 6:16 AM MST 5:08 PM MST
Nautical Twilight 5:40 AM MST 5:44 PM MST
Astronomical Twilight 5:04 AM MST 6:20 PM MST
Moon 10:16 PM MST (11/5) 12:10 PM MST (11/5)
Length of Visible Light 10h 51m
Length of Day
9h 47m
Waning Gibbous, 62% of the Moon is Illuminated
Nov 5
Waning Gibbous
Nov 6
Last Quarter
Nov 13
New
Nov 20
First Quarter
Nov 28
Full

Hourly Weather History & Observations

Time (MST) Temp. Windchill Dew Point Humidity Pressure Visibility Wind Dir Wind Speed Gust Speed Precip Events Conditions
12:15 AM 33.8 °F 30.8 °F 30.2 °F 87% 30.21 in 0.2 mi West 3.5 mph - N/A   Overcast
12:35 AM 33.8 °F 29.6 °F 30.2 °F 87% 30.21 in 0.2 mi WSW 4.6 mph - N/A   Overcast
12:55 AM 33.8 °F 29.6 °F 30.2 °F 87% 30.20 in 0.2 mi SW 4.6 mph - N/A   Overcast
1:15 AM 33.8 °F 29.6 °F 30.2 °F 87% 30.19 in 0.2 mi SW 4.6 mph - N/A   Overcast
1:35 AM 33.8 °F 27.7 °F 32.0 °F 93% 30.18 in 0.2 mi South 6.9 mph - N/A   Overcast
1:55 AM 33.8 °F 26.4 °F 33.8 °F 100% 30.18 in 0.2 mi South 9.2 mph - N/A   Overcast
2:15 AM 33.8 °F 27.0 °F 32.0 °F 93% 30.16 in 0.2 mi South 8.1 mph - N/A   Overcast
2:55 AM 33.8 °F 27.7 °F 32.0 °F 93% 30.15 in 0.2 mi South 6.9 mph - N/A   Overcast
3:15 AM 33.8 °F 27.7 °F 32.0 °F 93% 30.14 in 0.2 mi South 6.9 mph - N/A   Overcast
3:35 AM 33.8 °F 28.6 °F 32.0 °F 93% 30.14 in 0.2 mi South 5.8 mph - N/A   Overcast
3:55 AM 33.8 °F 27.7 °F 32.0 °F 93% 30.12 in 0.2 mi South 6.9 mph - N/A   Overcast
4:15 AM 33.8 °F 26.4 °F 32.0 °F 93% 30.10 in 0.2 mi South 9.2 mph - N/A   Overcast
4:35 AM 33.8 °F 26.4 °F 32.0 °F 93% 30.09 in 0.2 mi South 9.2 mph - N/A   Overcast
4:55 AM 33.8 °F 29.6 °F 30.2 °F 87% 30.09 in 0.2 mi South 4.6 mph - N/A   Overcast
5:15 AM 33.8 °F 28.6 °F 30.2 °F 87% 30.08 in 0.2 mi South 5.8 mph - N/A   Overcast
5:35 AM 33.8 °F 29.6 °F 32.0 °F 93% 30.05 in 0.2 mi South 4.6 mph - N/A   Overcast
5:55 AM 33.8 °F 27.7 °F 30.2 °F 87% 30.03 in 0.8 mi SSW 6.9 mph - N/A   Overcast
6:15 AM 33.8 °F 27.0 °F 30.2 °F 87% 30.03 in 3.0 mi SW 8.1 mph - N/A   Overcast
6:35 AM 33.8 °F 26.4 °F 30.2 °F 87% 30.02 in 8.0 mi SSW 9.2 mph - N/A   Mostly Cloudy
6:55 AM 33.8 °F 25.8 °F 30.2 °F 87% 30.01 in 9.0 mi SSW 10.4 mph - N/A   Partly Cloudy
7:15 AM 33.8 °F 25.3 °F 32.0 °F 93% 30.01 in 10.0 mi SSW 11.5 mph - N/A   Clear
7:35 AM 33.8 °F 24.3 °F 32.0 °F 93% 30.01 in 10.0 mi SSW 13.8 mph - N/A   Clear
7:55 AM 33.8 °F 24.3 °F 32.0 °F 93% 30.00 in 10.0 mi SSW 13.8 mph - N/A   Clear
8:15 AM 35.6 °F 27.1 °F 33.8 °F 93% 29.98 in 10.0 mi SSW 12.7 mph - N/A   Clear
8:55 AM 37.4 °F 29.8 °F 33.8 °F 87% 29.97 in 10.0 mi South 11.5 mph - N/A   Clear
9:15 AM 37.4 °F 29.3 °F 33.8 °F 87% 29.97 in 10.0 mi SSW 12.7 mph - N/A   Clear
9:35 AM 39.2 °F 31.6 °F 35.6 °F 87% 29.95 in 10.0 mi South 12.7 mph - N/A   Clear
9:55 AM 39.2 °F 32.0 °F 35.6 °F 87% 29.94 in 10.0 mi SSW 11.5 mph - N/A   Clear
10:15 AM 41.0 °F 33.1 °F 35.6 °F 81% 29.93 in 10.0 mi South 15.0 mph - N/A   Clear
10:35 AM 42.8 °F 35.8 °F 35.6 °F 76% 29.93 in 10.0 mi South 13.8 mph - N/A   Clear
10:55 AM 44.6 °F 38.8 °F 35.6 °F 71% 29.92 in 10.0 mi SSW 11.5 mph - N/A   Scattered Clouds
11:15 AM 48.2 °F - 37.4 °F 66% 29.91 in 10.0 mi South 9.2 mph - N/A   Mostly Cloudy
11:35 AM 51.8 °F - 39.2 °F 62% 29.89 in 10.0 mi SW 16.1 mph - N/A   Scattered Clouds
11:55 AM 53.6 °F - 39.2 °F 58% 29.88 in 10.0 mi SSW 16.1 mph - N/A   Partly Cloudy
12:15 PM 53.6 °F - 39.2 °F 58% 29.85 in 10.0 mi SSW 11.5 mph - N/A   Partly Cloudy
12:35 PM 55.4 °F - 41.0 °F 58% 29.84 in 10.0 mi SW 15.0 mph - N/A   Partly Cloudy
12:55 PM 57.2 °F - 41.0 °F 55% 29.83 in 10.0 mi WSW 15.0 mph - N/A   Partly Cloudy
1:15 PM 57.2 °F - 39.2 °F 51% 29.83 in 10.0 mi WSW 15.0 mph - N/A   Partly Cloudy
1:35 PM 59.0 °F - 41.0 °F 51% 29.82 in 10.0 mi WSW 15.0 mph - N/A   Partly Cloudy
2:15 PM 64.4 °F - 44.6 °F 49% 29.82 in 10.0 mi West 18.4 mph 24.2 mph N/A   Partly Cloudy
2:55 PM 66.2 °F - 42.8 °F 43% 29.82 in 10.0 mi NW 19.6 mph 32.2 mph N/A   Overcast
3:15 PM 64.4 °F - 39.2 °F 40% 29.83 in 10.0 mi NW 26.5 mph 32.2 mph N/A   Overcast
3:35 PM 62.6 °F - 41.0 °F 45% 29.84 in 10.0 mi NW 23.0 mph 34.5 mph N/A   Overcast
3:55 PM 60.8 °F - 42.8 °F 52% 29.85 in 10.0 mi NW 21.9 mph 28.8 mph N/A   Overcast
4:15 PM 60.8 °F - 39.2 °F 45% 29.86 in 10.0 mi NW 23.0 mph 32.2 mph N/A   Overcast
4:35 PM 55.4 °F - 39.2 °F 54% 29.89 in 10.0 mi NNW 31.1 mph 42.6 mph N/A   Mostly Cloudy
4:55 PM 50.0 °F - 37.4 °F 62% 29.93 in 10.0 mi NNW 32.2 mph 44.9 mph N/A   Mostly Cloudy
5:15 PM 46.4 °F 38.1 °F 35.6 °F 66% 29.96 in 10.0 mi NNW 24.2 mph 33.4 mph N/A   Overcast
5:35 PM 44.6 °F 36.4 °F 35.6 °F 71% 29.97 in 10.0 mi NNW 20.7 mph 26.5 mph N/A   Scattered Clouds
5:55 PM 42.8 °F 33.5 °F 33.8 °F 70% 29.98 in 10.0 mi NNW 23.0 mph 26.5 mph N/A   Clear
6:15 PM 42.8 °F 34.3 °F 33.8 °F 70% 30.00 in 10.0 mi NNW 19.6 mph 26.5 mph N/A   Clear
6:55 PM 41.0 °F 33.1 °F 33.8 °F 76% 30.00 in 10.0 mi NNW 15.0 mph - N/A   Clear
7:15 PM 39.2 °F 30.5 °F 33.8 °F 81% 30.01 in 10.0 mi NW 16.1 mph 21.9 mph N/A   Clear
7:35 PM 39.2 °F 29.6 °F 32.0 °F 75% 30.02 in 10.0 mi NW 19.6 mph 24.2 mph N/A   Clear
7:55 PM 39.2 °F 30.8 °F 32.0 °F 75% 30.03 in 10.0 mi NW 15.0 mph - N/A   Clear
8:15 PM 41.0 °F 32.8 °F 30.2 °F 65% 30.03 in 10.0 mi NW 16.1 mph - N/A   Clear
8:35 PM 42.8 °F 35.4 °F 30.2 °F 61% 30.04 in 10.0 mi WNW 15.0 mph 23.0 mph N/A   Clear
8:55 PM 39.2 °F 30.5 °F 30.2 °F 70% 30.04 in 10.0 mi WNW 16.1 mph - N/A   Clear
9:35 PM 39.2 °F 32.0 °F 28.4 °F 65% 30.06 in 10.0 mi WNW 11.5 mph - N/A   Partly Cloudy
9:55 PM 37.4 °F 29.3 °F 28.4 °F 70% 30.06 in 10.0 mi WNW 12.7 mph - N/A   Partly Cloudy
10:15 PM 37.4 °F 29.3 °F 30.2 °F 75% 30.07 in 10.0 mi WNW 12.7 mph - N/A   Partly Cloudy
10:35 PM 37.4 °F 29.8 °F 28.4 °F 70% 30.07 in 10.0 mi West 11.5 mph - N/A   Mostly Cloudy
10:55 PM 37.4 °F 30.3 °F 28.4 °F 70% 30.08 in 10.0 mi West 10.4 mph - N/A   Scattered Clouds
11:15 PM 39.2 °F 32.0 °F 30.2 °F 70% 30.08 in 10.0 mi West 11.5 mph - N/A   Mostly Cloudy
11:35 PM 39.2 °F 30.8 °F 30.2 °F 70% 30.10 in 10.0 mi West 15.0 mph 20.7 mph N/A   Overcast
11:55 PM 41.0 °F 32.5 °F 30.2 °F 65% 30.10 in 10.0 mi West 17.3 mph - N/A   Overcast